Temperature
23 23 23 22 20 21 23 24 25 25 26 26 26 25 23 22 22 21 21 20 21 21 20 20 20 20 20 20 19 19 19 19 19 18 18 19 19 19 19 19 19 19 19 18 18 19 19 18 18
24 24 23 22 20 22 23 25 25 27 26 25 25 24 23 22 22 21 21 20 21 21 21 20 20 20 20 19 19 19 19 19 19 18 18 18 18 19 18 19 18 19 18 18 18 18 19 18 18
24 24 23 20 21 22 24 24 25 27 27 26 26 25 23 22 22 22 21 21 21 21 21 20 20 20 19 19 19 19 19 19 19 18 18 18 18 18 18 19 19 18 18 18 19 19 19 19 19
24 24 23 20 21 22 25 25 25 27 27 27 25 23 23 22 22 22 21 21 21 21 20 20 20 20 19 19 19 19 19 19 19 18 18 18 18 18 18 19 18 18 18 18 18 18 19 19 19
24 23 19 21 21 22 24 27 28 27 27 26 25 22 22 22 22 22 21 21 21 20 20 20 20 20 19 19 19 19 19 19 19 19 18 18 18 18 18 18 18 18 18 18 18 18 18 18 19
24 21 19 21 21 22 24 27 29 26 25 24 23 22 22 22 22 22 22 21 21 21 20 20 20 20 19 19 19 19 19 19 19 19 18 18 18 18 18 18 18 18 18 18 18 18 18 18 18
23 19 20 20 20 22 25 27 27 26 25 25 24 22 22 22 22 22 22 22 21 21 20 20 20 20 20 19 19 19 19 19 19 18 18 18 18 18 18 18 18 18 18 18 18 18 18 18 18
24 19 19 19 21 22 24 26 28 28 27 26 25 22 22 22 22 22 22 21 21 21 20 20 20 20 20 19 19 19 19 19 19 18 18 18 18 18 18 18 18 17 18 18 18 18 18 18 18
24 20 19 20 21 23 25 26 28 29 28 26 26 25 24 22 22 22 21 21 21 21 20 20 20 20 20 19 19 19 19 19 19 18 18 18 18 18 18 18 18 18 18 18 18 17 17 17 17
23 20 21 22 22 22 24 25 28 28 26 24 25 25 23 22 22 22 21 21 21 21 20 21 21 20 20 20 20 19 19 19 18 18 18 18 18 18 18 18 18 18 18 17 17 17 17 17 17
23 21 22 22 23 24 24 24 27 27 25 24 24 24 23 23 22 22 22 22 21 21 21 21 20 20 20 20 20 20 19 19 18 18 18 18 18 17 18 18 18 18 17 17 17 17 17 17 17
22 22 22 23 24 25 23 24 27 27 27 26 26 25 24 23 23 23 22 22 21 21 21 21 20 20 20 20 20 20 19 19 19 19 18 18 18 17 18 18 18 18 17 17 17 17 17 17 17
22 22 23 25 25 25 25 24 26 25 26 26 26 25 24 24 23 23 23 22 22 21 21 21 21 21 20 20 20 19 19 19 19 19 18 18 17 17 17 17 18 17 17 17 17 16 17 17 16
23 22 23 23 22 22 21 24 25 22 24 25 25 24 25 25 24 23 23 23 22 22 21 21 21 21 21 20 20 19 19 19 19 18 18 18 17 17 17 17 17 17 17 17 17 16 16 17 16
24 23 23 19 19 19 19 23 21 21 25 24 23 24 24 25 25 24 24 23 23 22 22 22 22 21 20 20 20 19 19 19 19 18 18 18 17 17 17 17 17 17 17 17 16 16 16 16 16
22 23 22 19 19 20 20 21 21 21 22 23 22 23 24 24 25 25 24 24 24 23 23 23 22 21 21 20 20 19 19 19 19 18 18 18 18 17 17 17 17 17 17 17 17 17 17 16 16
21 20 21 19 18 19 20 20 20 20 21 21 22 22 24 24 25 25 25 24 24 24 23 23 22 21 21 20 20 20 19 19 18 18 18 18 18 18 17 17 17 17 17 17 17 16 16 17 16
19 18 20 19 19 19 19 19 20 20 20 20 21 22 24 23 23 25 25 25 25 24 23 23 22 21 21 20 20 20 19 18 18 18 18 18 18 18 18 17 17 17 17 17 17 16 16 16 17
18 18 19 19 19 18 18 18 19 20 19 20 22 24 25 25 24 24 25 25 25 24 23 22 22 21 20 20 19 19 19 18 18 18 18 17 17 17 17 17 17 17 17 17 17 16 16 16 16
19 18 18 19 19 18 18 18 19 19 19 20 21 23 24 26 25 24 26 25 25 24 24 22 21 21 20 20 19 19 19 18 18 18 18 17 17 17 17 18 17 17 17 17 17 16 16 16 15
19 18 18 18 18 18 17 17 17 19 20 20 20 20 21 23 24 23 24 25 25 24 23 22 21 21 20 19 19 19 18 18 17 17 18 18 18 17 17 18 17 17 17 16 16 16 16 16 15
18 19 19 18 16 15 16 15 16 18 18 19 19 19 20 21 22 22 22 23 23 24 23 22 22 21 20 20 19 19 18 18 17 17 18 18 18 17 17 17 17 17 16 16 16 16 16 16 16
18 17 16 16 15 15 15 15 16 17 17 18 18 20 22 22 21 21 20 20 21 21 22 21 21 21 20 20 19 18 18 18 17 17 17 18 17 17 17 17 16 16 16 16 16 15 16 16 16
18 17 15 15 14 15 15 16 15 16 16 17 19 21 21 23 22 22 21 20 19 21 20 21 21 20 20 19 18 18 17 17 17 17 17 17 17 17 16 16 16 16 15 15 15 15 15 16 16
18 17 16 14 15 16 15 15 13 14 15 16 16 18 18 19 21 20 20 19 19 19 20 21 20 20 20 19 18 17 17 17 17 17 17 17 17 16 16 16 16 15 15 15 15 15 15 15 15
18 17 16 14 15 15 17 15 13 15 15 16 15 14 15 15 17 18 19 20 17 18 18 21 21 19 20 20 18 18 17 17 17 18 17 17 17 16 16 16 15 15 15 15 14 15 15 15 15
15 15 15 15 15 14 14 14 15 15 14 15 15 14 14 14 15 15 16 16 17 19 21 22 20 19 20 20 18 17 17 17 17 17 17 17 16 16 16 15 15 15 15 15 14 15 14 14 14
14 14 11 13 13 13 13 13 12 13 13 14 14 14 14 14 17 17 17 17 19 21 21 20 19 18 20 20 18 18 18 17 17 17 17 17 16 16 16 15 15 15 15 14 14 14 14 14 14
12 12 11 12 12 12 12 12 13 12 13 12 14 14 14 16 17 18 19 19 19 19 20 19 17 19 21 20 19 18 19 18 17 17 17 16 16 16 16 15 15 15 14 13 14 14 14 14 14
12 11 11 11 11 11 13 12 14 13 13 11 13 13 13 15 16 17 20 20 21 21 20 19 18 19 21 20 19 19 19 18 18 18 18 17 16 16 15 15 14 14 14 14 14 14 13 13 13
Wind_Speed
8 6 2 2 4 5 1 1 3 1 2 4 6 10 8 4 2 3 7 10 14 14 14 16 18 16 16 15 15 14 15 14 13 13 13 13 12 11 12 12 12 13 13 14 14 15 14 12 12
5 2 3 3 4 4 1 2 4 3 6 10 9 8 6 3 2 8 9 12 16 13 14 14 18 17 16 15 15 14 15 15 14 14 14 13 12 11 12 12 11 12 13 14 14 15 15 13 12
4 2 4 4 4 1 4 5 5 2 11 9 4 4 5 4 4 7 10 15 14 12 13 14 17 16 16 15 15 15 16 16 15 15 14 13 13 12 12 11 11 12 13 13 14 14 14 12 11
1 4 5 4 2 4 4 6 6 3 5 5 6 5 4 3 6 8 15 14 13 12 12 15 17 15 15 15 14 15 15 15 15 14 14 14 13 12 12 11 11 13 13 13 12 12 12 11 9
3 5 5 3 3 5 7 2 7 4 4 4 5 5 3 2 10 15 14 12 12 10 9 14 16 15 15 15 15 15 14 14 15 14 14 14 12 12 12 11 10 11 12 12 11 10 9 7 7
4 5 4 3 6 7 8 4 2 6 7 7 8 6 2 6 13 14 12 10 12 10 8 11 14 15 14 14 15 14 14 14 14 14 14 14 12 11 10 10 9 9 9 10 10 8 7 5 5
4 5 4 3 6 7 4 4 4 8 7 7 9 6 4 6 11 14 11 10 10 10 8 7 10 12 13 13 13 14 15 15 14 13 13 13 12 11 10 9 9 8 10 10 8 6 5 2 4
5 6 4 2 7 7 3 6 2 6 4 7 7 7 7 9 13 13 9 8 8 8 8 6 8 9 9 11 13 14 15 15 14 13 12 13 12 11 10 8 8 8 10 10 7 4 2 1 2
4 5 5 8 6 7 6 5 4 3 5 3 2 5 12 11 15 12 7 5 6 7 6 6 5 7 9 9 12 14 14 14 13 12 12 12 10 10 9 8 8 9 9 9 8 6 4 2 1
4 4 4 4 3 5 8 8 5 3 5 5 7 10 12 13 17 14 11 11 9 9 8 8 8 7 7 8 9 10 12 13 12 10 10 10 8 8 9 9 10 9 8 7 6 4 2 2 2
5 6 5 4 6 3 6 10 7 2 4 7 12 14 11 12 16 13 12 14 12 11 10 10 8 8 6 5 7 7 9 10 11 11 11 10 8 7 8 8 8 7 7 5 3 0 2 3 3
4 5 4 5 6 3 2 5 4 1 1 12 18 18 16 15 16 16 15 12 11 11 11 11 11 10 7 7 6 6 6 7 7 11 12 9 5 5 5 5 6 6 7 5 3 2 4 6 8
3 4 4 2 3 3 6 8 2 5 8 5 13 16 17 17 16 14 14 14 13 12 12 14 13 12 9 8 5 4 4 6 8 10 12 12 6 6 5 4 6 7 7 5 3 2 5 8 8
4 5 4 5 7 9 5 9 1 8 16 7 9 15 16 17 17 14 13 14 15 15 15 14 14 13 11 9 8 7 5 6 8 9 11 13 11 6 4 3 4 6 7 6 6 6 5 5 5
3 3 0 7 7 6 8 4 3 6 8 8 2 5 8 12 14 16 18 18 17 18 17 16 15 13 12 11 10 7 8 7 6 8 11 12 12 10 7 6 6 6 9 9 7 6 6 5 5
3 1 2 3 6 3 6 5 3 3 4 8 10 10 9 9 12 15 18 19 17 17 18 17 14 13 13 12 10 8 8 7 6 8 10 12 12 10 5 6 7 8 9 6 6 6 5 4 4
2 2 1 1 2 3 1 7 4 3 0 3 6 10 19 16 11 14 18 19 18 18 18 15 15 15 13 12 11 8 5 6 7 7 8 10 10 8 4 4 5 9 7 5 6 3 4 4 4
1 2 2 3 3 2 4 8 9 5 2 3 4 2 12 21 17 8 16 19 19 17 16 14 14 14 12 9 7 5 6 5 5 6 8 8 7 5 5 4 4 5 6 6 4 4 2 3 5
5 4 6 5 4 4 7 9 13 8 4 6 6 5 2 9 16 8 17 20 17 15 15 14 15 13 11 7 6 5 6 5 4 4 6 8 7 5 4 5 5 5 5 7 7 5 3 1 2
4 2 4 4 2 3 6 11 13 10 7 6 8 8 10 13 13 8 13 19 19 18 16 16 17 14 12 9 5 4 4 3 3 3 4 6 6 6 5 6 5 5 4 6 7 6 5 4 3
4 5 5 4 3 2 5 7 6 6 7 5 5 7 12 16 16 10 11 16 20 21 19 17 15 13 11 10 7 5 5 3 2 1 2 4 6 6 6 5 6 5 5 6 7 6 7 5 4
5 4 3 3 4 3 3 6 6 4 3 4 5 8 9 9 4 5 5 6 10 16 18 16 13 11 10 11 9 8 5 4 5 4 4 4 5 7 7 6 6 6 5 5 6 5 5 5 6
3 7 6 4 3 2 1 2 7 7 6 7 10 11 7 7 4 6 5 4 3 2 6 13 13 10 10 10 9 8 5 4 3 3 4 5 5 5 5 6 5 6 5 5 4 5 6 5 5
9 6 5 3 3 2 4 4 6 13 17 18 13 10 12 11 10 11 6 2 6 7 6 5 11 8 8 8 7 8 7 6 4 4 4 3 2 3 5 5 6 7 7 6 6 5 6 7 5
3 4 3 5 1 4 2 3 7 15 20 21 21 18 14 5 3 9 12 2 1 6 1 5 7 6 7 8 8 8 7 7 8 7 6 5 4 4 6 6 6 5 6 6 6 6 6 7 6
5 5 5 4 4 3 1 2 6 12 18 21 19 19 23 22 18 13 5 10 9 9 4 5 6 6 7 8 7 6 6 6 5 6 6 6 5 5 6 7 6 7 6 5 6 5 6 6 6
5 2 2 3 0 1 4 6 2 16 21 24 21 20 18 13 14 14 15 10 12 18 15 8 10 8 7 6 5 5 5 6 5 4 5 4 4 4 5 5 6 6 6 6 6 6 7 7 7
7 4 2 1 4 4 0 1 3 11 17 21 20 14 13 8 8 10 8 9 14 0 6 5 5 6 6 4 4 5 5 8 6 5 6 6 6 5 6 6 5 3 4 5 4 3 4 5 6
7 4 2 2 2 4 3 0 4 8 14 19 21 15 14 13 6 3 3 6 9 6 1 6 9 9 6 6 6 4 6 7 7 4 5 6 6 7 7 6 5 6 6 5 3 3 3 4 5
5 2 2 1 1 0 3 3 1 6 10 15 19 19 20 19 14 7 6 11 11 8 7 8 6 6 7 7 5 5 5 4 5 6 5 6 7 7 7 7 7 7 7 6 5 5 4 4 5
Wind_Direction
305 304 103 70 58 61 50 165 147 160 22 45 72 94 102 77 92 146 159 154 138 148 157 159 152 151 145 140 136 135 139 136 135 131 128 128 122 114 110 107 103 99 96 94 94 94 95 98 99
319 352 76 57 67 83 276 220 139 187 115 109 93 97 80 57 54 125 138 152 145 148 151 155 155 157 150 145 142 141 136 134 132 131 133 133 125 117 112 107 105 104 100 98 98 97 96 97 96
313 13 63 53 52 162 185 222 187 193 132 142 108 69 84 116 136 146 153 150 144 145 148 157 159 158 153 149 146 145 138 137 133 132 135 134 126 121 112 109 107 109 108 104 100 99 98 97 96
4 39 46 53 356 277 205 201 197 157 105 96 103 63 48 141 158 145 142 145 143 143 148 159 153 154 152 149 147 146 143 139 137 136 140 139 136 128 119 114 111 112 114 110 103 99 95 95 97
65 70 56 51 292 289 307 194 159 131 90 70 90 83 44 65 121 133 144 144 136 133 146 150 146 150 151 151 151 150 150 145 143 144 142 143 140 131 123 120 116 114 117 117 112 102 93 89 87
46 65 71 29 321 302 297 279 107 86 116 119 108 105 81 115 125 143 149 140 133 131 126 139 146 149 153 155 155 154 155 150 148 147 147 147 143 136 130 127 125 121 125 128 125 118 112 95 74
84 73 75 34 304 297 286 335 115 130 151 158 138 104 139 155 146 151 153 134 132 133 130 126 142 153 158 159 159 158 157 155 152 152 155 146 143 143 138 134 136 138 133 132 138 139 134 96 44
113 99 110 164 263 266 307 341 160 130 119 136 135 139 174 178 148 152 142 123 125 130 135 136 148 150 150 160 164 162 161 158 157 160 158 147 149 151 143 142 149 143 136 140 154 164 151 91 58
102 100 166 195 230 281 332 338 285 116 94 112 141 141 154 148 138 140 111 105 126 140 143 146 147 146 150 163 168 163 166 160 159 163 158 146 149 149 144 152 162 156 150 153 167 182 184 135 93
115 134 199 209 230 281 315 336 304 80 84 48 66 109 133 130 144 150 153 160 164 165 163 164 160 153 154 167 162 161 163 156 158 159 152 149 155 159 161 165 169 168 162 166 175 183 209 106 55
147 165 181 215 248 291 330 322 306 149 136 167 154 150 155 143 159 164 172 172 172 173 171 170 166 158 161 162 154 160 153 154 160 164 164 161 164 171 166 168 174 177 176 183 171 341 300 203 181
164 189 190 202 215 199 245 284 299 336 237 171 166 164 166 168 170 171 178 177 171 175 173 167 170 166 168 156 162 163 159 164 170 175 172 166 160 166 169 174 177 188 191 195 133 2 18 118 136
186 209 223 234 198 230 283 274 262 356 349 139 163 171 178 180 182 183 173 175 174 171 171 174 166 168 165 156 155 156 168 174 181 179 175 167 162 170 176 181 186 200 194 197 134 126 102 104 118
199 207 268 50 44 13 349 269 184 347 357 54 160 189 191 193 186 181 176 176 174 171 175 175 171 169 165 166 168 166 171 177 180 183 183 179 176 174 178 186 190 205 197 191 165 152 128 116 115
190 226 169 45 10 11 354 279 105 307 351 63 60 228 222 224 197 181 183 182 175 172 174 176 175 166 166 171 173 168 179 178 183 196 195 187 179 182 188 186 199 203 195 187 158 143 128 126 122
331 285 215 28 11 21 26 258 161 288 21 46 36 7 349 281 224 190 181 184 178 171 175 180 173 164 168 171 174 178 180 177 183 198 197 193 181 184 182 175 194 184 170 155 147 146 138 141 143
309 251 220 316 20 331 33 256 263 291 304 11 34 22 13 338 261 199 179 180 179 177 176 175 164 167 170 171 175 175 167 171 181 180 199 204 197 194 158 166 187 169 157 148 146 156 153 159 170
230 324 288 236 237 278 253 257 275 271 261 300 304 318 23 358 318 226 178 178 179 177 175 162 163 168 162 157 155 147 147 156 158 182 199 200 207 193 160 149 193 187 164 154 150 130 158 170 177
166 222 257 247 204 234 244 258 271 269 287 297 287 269 0 358 333 271 177 176 174 170 172 163 165 169 157 143 142 162 160 161 176 198 197 187 179 175 163 152 167 195 188 172 166 144 149 178 156
164 218 272 270 186 263 273 268 267 262 250 242 294 330 332 326 317 265 173 171 172 169 168 165 171 166 162 157 151 153 146 161 164 182 179 177 172 176 178 173 167 195 185 173 178 163 153 173 184
205 201 216 236 332 355 320 285 269 258 234 213 238 286 275 267 249 213 175 174 174 169 171 169 166 159 156 144 127 98 92 80 77 127 182 181 198 207 198 193 174 183 185 190 193 188 170 162 161
242 211 132 77 35 330 13 300 294 295 284 254 240 243 245 286 224 176 158 161 197 180 163 157 152 152 154 146 148 156 160 161 177 177 193 214 211 211 203 197 175 181 188 205 207 184 192 173 167
152 101 105 112 96 319 270 247 297 1 331 288 254 234 227 225 175 109 66 42 11 17 123 138 139 147 148 149 154 151 141 145 153 160 191 229 225 223 212 196 167 161 181 210 225 200 200 206 179
127 101 66 57 71 297 240 213 359 9 358 342 314 268 247 224 202 146 126 230 214 136 125 149 130 132 129 134 143 146 152 155 154 169 189 216 230 238 231 196 180 175 192 196 192 202 211 209 188
89 108 37 349 306 235 285 97 58 11 4 359 1 350 342 299 259 124 123 114 320 65 99 137 118 140 147 150 159 163 169 171 179 188 180 190 194 217 226 204 188 187 204 199 198 198 215 215 197
265 153 171 214 238 291 317 91 85 2 347 355 10 24 35 23 22 20 24 171 192 134 206 163 152 191 167 166 180 183 175 179 187 192 180 197 201 207 221 207 191 188 194 199 211 208 218 218 209
336 82 143 162 108 39 355 31 29 3 355 351 358 14 19 24 32 18 14 347 184 169 190 180 169 190 187 185 197 226 201 181 171 181 181 192 191 190 186 170 174 169 168 182 198 217 217 205 205
358 4 6 199 170 176 140 38 285 347 348 342 340 348 343 331 35 22 27 342 310 307 133 134 156 203 199 197 227 235 198 179 167 170 173 181 176 170 161 175 179 186 178 182 179 209 220 214 213
3 31 354 163 141 153 148 108 355 328 338 342 329 338 335 325 16 9 312 287 279 321 152 169 205 202 187 190 205 193 151 164 172 187 177 174 171 180 187 189 197 220 215 203 188 201 204 229 239
92 66 3 71 342 282 136 147 85 336 3 349 333 346 352 336 304 258 248 268 266 240 204 199 215 222 205 188 176 180 173 187 205 211 197 182 188 193 198 199 202 215 217 212 204 215 218 233 255
Height
1498 1496 1495 1496 1500 1507 1510 1502 1495 1493 1491 1492 1490 1492 1496 1501 1506 1514 1509 1508 1510 1511 1513 1515 1517 1519 1521 1523 1524 1525 1526 1527 1528 1529 1529 1530 1532 1532 1532 1533 1534 1534 1534 1534 1534 1535 1534 1534 1534
1498 1496 1497 1497 1507 1519 1513 1498 1494 1491 1492 1494 1495 1496 1497 1502 1503 1504 1506 1509 1511 1512 1513 1515 1517 1519 1521 1522 1523 1525 1526 1527 1529 1530 1530 1531 1532 1533 1533 1534 1535 1535 1535 1535 1535 1536 1536 1536 1536
1498 1497 1498 1502 1512 1516 1510 1498 1492 1488 1491 1492 1496 1498 1500 1503 1504 1505 1507 1509 1512 1513 1514 1516 1518 1519 1521 1522 1524 1525 1526 1527 1529 1531 1531 1532 1532 1533 1533 1534 1534 1535 1535 1535 1536 1536 1537 1536 1537
1499 1499 1502 1510 1517 1507 1497 1493 1490 1489 1492 1493 1495 1500 1502 1505 1505 1507 1508 1510 1513 1513 1515 1516 1518 1519 1521 1522 1524 1526 1527 1528 1529 1530 1532 1532 1533 1534 1534 1534 1534 1535 1535 1536 1536 1537 1538 1538 1538
1500 1501 1511 1516 1515 1505 1496 1490 1488 1490 1492 1494 1495 1501 1504 1505 1505 1507 1510 1512 1513 1515 1516 1518 1519 1520 1521 1522 1524 1525 1527 1528 1530 1531 1531 1532 1534 1534 1535 1535 1535 1536 1536 1537 1537 1538 1539 1540 1540
1501 1504 1519 1522 1518 1505 1496 1491 1489 1492 1493 1495 1497 1501 1506 1506 1505 1508 1511 1513 1514 1515 1517 1518 1518 1520 1521 1522 1523 1525 1526 1528 1529 1531 1532 1533 1534 1535 1536 1536 1536 1537 1537 1538 1538 1539 1540 1540 1541
1504 1511 1522 1525 1523 1509 1495 1493 1491 1492 1494 1495 1496 1501 1506 1507 1507 1509 1511 1513 1514 1515 1516 1517 1518 1519 1521 1522 1523 1524 1526 1528 1529 1531 1532 1534 1535 1536 1537 1537 1537 1537 1539 1540 1541 1540 1540 1541 1541
1503 1513 1524 1526 1521 1510 1496 1494 1491 1491 1493 1495 1495 1499 1503 1506 1507 1510 1512 1515 1515 1515 1516 1516 1518 1519 1521 1522 1523 1525 1527 1528 1529 1531 1533 1535 1535 1536 1537 1537 1538 1538 1539 1540 1542 1542 1541 1541 1542
1504 1515 1526 1522 1518 1507 1497 1496 1492 1491 1493 1495 1495 1495 1498 1504 1506 1510 1513 1516 1516 1516 1516 1516 1518 1519 1520 1522 1523 1525 1527 1528 1530 1531 1533 1535 1536 1537 1537 1538 1539 1539 1540 1541 1542 1543 1543 1543 1544
1504 1517 1517 1511 1508 1505 1497 1496 1493 1492 1494 1496 1496 1498 1500 1504 1506 1508 1511 1513 1514 1515 1515 1517 1518 1519 1520 1522 1523 1525 1526 1528 1529 1531 1533 1534 1536 1537 1537 1538 1540 1541 1541 1542 1543 1544 1545 1545 1545
1503 1511 1508 1506 1504 1504 1499 1498 1495 1493 1494 1496 1497 1499 1501 1504 1506 1509 1510 1511 1513 1515 1515 1516 1518 1518 1520 1521 1523 1524 1526 1528 1529 1530 1532 1533 1535 1536 1537 1538 1539 1541 1542 1544 1544 1544 1544 1546 1546
1501 1502 1501 1500 1498 1500 1499 1500 1497 1494 1494 1494 1494 1496 1499 1502 1504 1506 1508 1511 1513 1513 1515 1516 1517 1518 1519 1520 1522 1524 1526 1528 1529 1530 1531 1533 1534 1536 1537 1538 1539 1541 1543 1544 1545 1545 1546 1547 1547
1501 1499 1498 1496 1493 1492 1493 1497 1496 1495 1495 1494 1495 1496 1497 1498 1501 1503 1505 1508 1510 1512 1513 1514 1516 1517 1518 1520 1521 1522 1524 1526 1529 1530 1531 1533 1534 1536 1538 1539 1541 1543 1544 1544 1545 1545 1547 1547 1547
1498 1499 1497 1497 1498 1495 1496 1494 1495 1494 1493 1494 1495 1495 1495 1495 1497 1500 1503 1505 1507 1508 1510 1511 1513 1516 1518 1519 1520 1522 1523 1525 1527 1529 1531 1532 1534 1537 1539 1540 1541 1543 1545 1545 1545 1545 1547 1549 1550
1495 1497 1498 1500 1499 1500 1498 1496 1497 1492 1490 1493 1497 1497 1497 1496 1496 1497 1498 1500 1502 1504 1507 1508 1510 1513 1516 1518 1519 1520 1522 1524 1526 1528 1530 1532 1533 1535 1537 1539 1540 1542 1544 1545 1546 1546 1546 1547 1549
1494 1498 1504 1504 1500 1499 1503 1504 1495 1493 1491 1488 1492 1495 1496 1495 1494 1494 1495 1497 1499 1501 1503 1506 1508 1511 1513 1516 1517 1519 1521 1524 1525 1527 1529 1531 1532 1534 1536 1537 1538 1540 1542 1544 1545 1546 1547 1548 1548
1502 1509 1507 1506 1502 1500 1502 1501 1492 1492 1490 1485 1483 1484 1483 1488 1490 1490 1490 1492 1496 1498 1500 1502 1505 1507 1511 1513 1516 1517 1519 1522 1524 1526 1528 1530 1532 1533 1534 1536 1537 1538 1539 1541 1544 1545 1547 1547 1548
1515 1515 1510 1508 1503 1502 1501 1497 1489 1488 1487 1483 1478 1477 1473 1479 1484 1485 1486 1488 1492 1495 1497 1499 1501 1504 1507 1510 1513 1515 1517 1519 1521 1523 1524 1526 1528 1530 1532 1533 1535 1536 1538 1540 1542 1543 1545 1547 1547
1508 1511 1509 1504 1500 1502 1499 1496 1488 1484 1483 1480 1474 1471 1469 1473 1477 1480 1481 1484 1488 1491 1494 1496 1497 1500 1503 1505 1509 1511 1513 1516 1518 1520 1522 1523 1525 1527 1529 1530 1532 1535 1536 1538 1541 1540 1542 1544 1546
1503 1508 1507 1501 1497 1500 1498 1495 1485 1481 1480 1478 1473 1465 1461 1464 1472 1476 1473 1477 1480 1484 1488 1491 1494 1497 1499 1503 1507 1509 1512 1514 1515 1518 1520 1521 1523 1525 1526 1527 1530 1531 1533 1535 1535 1537 1539 1540 1542
1501 1505 1503 1505 1499 1498 1501 1496 1486 1476 1476 1476 1474 1472 1468 1466 1469 1474 1471 1471 1474 1478 1482 1487 1491 1494 1496 1500 1504 1507 1510 1512 1513 1514 1517 1519 1520 1521 1523 1524 1526 1528 1529 1532 1533 1534 1536 1538 1539
1505 1495 1498 1503 1509 1513 1507 1515 1492 1481 1479 1476 1474 1473 1471 1467 1465 1469 1470 1474 1477 1474 1476 1482 1487 1491 1494 1498 1500 1504 1505 1507 1509 1511 1514 1516 1517 1518 1519 1520 1522 1524 1526 1527 1527 1529 1531 1534 1535
1498 1496 1501 1505 1511 1516 1509 1515 1499 1488 1486 1480 1473 1471 1468 1470 1463 1465 1470 1476 1483 1482 1479 1481 1485 1489 1492 1495 1497 1499 1502 1505 1508 1510 1512 1514 1516 1517 1517 1517 1518 1521 1523 1524 1526 1528 1527 1530 1532
1493 1499 1506 1509 1514 1522 1511 1512 1510 1503 1498 1484 1470 1465 1467 1462 1462 1463 1469 1475 1484 1480 1487 1490 1482 1485 1489 1493 1497 1498 1502 1504 1507 1509 1511 1513 1514 1514 1514 1515 1517 1518 1519 1520 1521 1522 1524 1525 1526
1496 1505 1520 1528 1522 1515 1507 1511 1524 1512 1502 1492 1480 1470 1463 1457 1457 1458 1462 1474 1482 1483 1490 1488 1484 1487 1489 1492 1495 1498 1500 1502 1504 1506 1508 1511 1512 1512 1513 1514 1514 1515 1515 1516 1517 1516 1518 1521 1523
1497 1503 1519 1535 1528 1517 1505 1515 1520 1509 1501 1492 1484 1475 1469 1467 1461 1461 1464 1470 1482 1482 1492 1487 1489 1490 1490 1492 1495 1497 1498 1500 1503 1503 1506 1509 1509 1509 1510 1511 1510 1510 1510 1512 1514 1514 1515 1518 1519
1507 1506 1507 1516 1518 1527 1523 1515 1511 1505 1499 1493 1488 1482 1480 1481 1476 1474 1474 1477 1480 1480 1485 1485 1486 1489 1489 1491 1495 1498 1500 1501 1502 1502 1505 1508 1508 1507 1508 1509 1510 1508 1507 1508 1511 1511 1511 1512 1514
1511 1510 1522 1519 1529 1533 1530 1526 1526 1514 1508 1500 1496 1492 1489 1484 1477 1478 1481 1491 1482 1478 1477 1481 1484 1486 1486 1490 1494 1496 1498 1501 1502 1502 1503 1505 1505 1507 1507 1507 1507 1508 1506 1506 1507 1508 1509 1509 1510
1518 1519 1521 1522 1525 1531 1531 1532 1522 1519 1514 1507 1502 1497 1493 1486 1479 1483 1483 1481 1477 1473 1474 1479 1480 1481 1484 1489 1493 1493 1495 1499 1501 1503 1505 1504 1504 1506 1506 1506 1505 1506 1504 1503 1503 1504 1504 1504 1505
1522 1525 1523 1525 1526 1526 1525 1534 1520 1521 1519 1517 1509 1500 1493 1489 1488 1486 1481 1474 1471 1473 1475 1477 1479 1483 1485 1488 1490 1492 1495 1499 1501 1502 1503 1502 1503 1504 1505 1505 1504 1504 1503 1502 1501 1502 1501 1500 1500